APL Coral — WDF6832 — position and weather

sailwx.info

Track history (hours):
 
Tides and Currents Weather Stations Pressure Air Temp Water Temp Dewpoint Dewpoint Depression Visibility Wind Speed Wind Dir Waves Ship Positions

APL Coral

Owner: APL Maritime Ltd., Bethesda, MD. More information available from US FCC via Universal Licensing System and Coast Guard Vessel Documentation Center.

Last reported at 2015-May-03 18:33 UTC. Time now 2015-May-03 18:53 UTC.
Position N 37°28' E 012°25'.

Length 275 m; draft 13.1 m.

Type: Cargo ship. MMSI: 367478280.

Date/timePositionNaut miles runAvg speedWind from/ knotsBaromVisibWave heightAir tempDewpointWater temp
2015-May-03 18:33N 37°28' E 012°25'2120.3
2015-May-03 17:31N 37°18' E 012°48'2620.5
2015-May-03 16:16N 37°04' E 013°15'1420.3
2015-May-03 15:33N 36°56' E 013°30'2020.0
2015-May-03 14:34N 36°46' E 013°52'2120.5
2015-May-03 13:34N 36°36' E 014°14'2019.9
2015-May-03 12:33N 36°26' E 014°36'2019.9
2015-May-03 11:33N 36°19' E 014°59'2020.3
2015-May-03 10:33N 36°14' E 015°23'2120.2
2015-May-03 09:30N 36°07' E 015°48'1920.4
2015-May-03 08:33N 36°01' E 016°11'2120.5
2015-May-03 07:33N 35°55' E 016°35'2420.3
2015-May-03 06:22N 35°47' E 017°03'923.1
2015-May-03 06:00N 35°42' E 017°12'1920.0 300 / 101012.010.8 0.520.014.919.0
2015-May-03 05:04N 35°39' E 017°35'1019.7
2015-May-03 04:33N 35°36' E 017°46'2019.8
2015-May-03 03:33N 35°30' E 018°10'2219.5
2015-May-03 02:25N 35°23' E 018°36'2419.7
2015-May-03 01:12N 35°17' E 019°04'1719.9
2015-May-03 00:21N 35°12' E 019°23'2119.9
2015-May-02 23:19N 35°05' E 019°48'1519.9
2015-May-02 22:33N 35°00' E 020°05'2019.9
2015-May-02 21:33N 34°54' E 020°28'2019.9
2015-May-02 20:33N 34°48' E 020°51'2020.0
2015-May-02 19:33N 34°42' E 021°14'2019.8
2015-May-02 18:33N 34°37' E 021°38'8419.6
2015-May-02 14:18N 34°11' E 023°14'1819.6
2015-May-02 13:23N 34°05' E 023°34'2120.0
2015-May-02 12:20N 33°59' E 023°58'42019.3
2015-May-01 14:33N 31°33' E 031°46'  
2015-Apr-27 06:00N 14°12' E 042°18'   1009.210.8 29.024.830.0
Track history (hours):
 
Tides and Currents Weather Stations Pressure Air Temp Water Temp Dewpoint Dewpoint Depression Visibility Wind Speed Wind Dir Waves Ship Positions

APL Coral

Owner: APL Maritime Ltd., Bethesda, MD. More information available from US FCC via Universal Licensing System and Coast Guard Vessel Documentation Center.

Last reported at 2015-May-03 18:33 UTC. Time now 2015-May-03 18:53 UTC.
Position N 37°28' E 012°25'.

Length 275 m; draft 13.1 m.

Type: Cargo ship. MMSI: 367478280.

Date/timePositionNaut miles runAvg speedWind from/ knotsBaromVisibWave heightAir tempDewpointWater temp
2015-May-03 18:33N 37°28' E 012°25'2120.3
2015-May-03 17:31N 37°18' E 012°48'2620.5
2015-May-03 16:16N 37°04' E 013°15'1420.3
2015-May-03 15:33N 36°56' E 013°30'2020.0
2015-May-03 14:34N 36°46' E 013°52'2120.5
2015-May-03 13:34N 36°36' E 014°14'2019.9
2015-May-03 12:33N 36°26' E 014°36'2019.9
2015-May-03 11:33N 36°19' E 014°59'2020.3
2015-May-03 10:33N 36°14' E 015°23'2120.2
2015-May-03 09:30N 36°07' E 015°48'1920.4
2015-May-03 08:33N 36°01' E 016°11'2120.5
2015-May-03 07:33N 35°55' E 016°35'2420.3
2015-May-03 06:22N 35°47' E 017°03'923.1
2015-May-03 06:00N 35°42' E 017°12'1920.0 300 / 101012.010.8 0.520.014.919.0
2015-May-03 05:04N 35°39' E 017°35'1019.7
2015-May-03 04:33N 35°36' E 017°46'2019.8
2015-May-03 03:33N 35°30' E 018°10'2219.5
2015-May-03 02:25N 35°23' E 018°36'2419.7
2015-May-03 01:12N 35°17' E 019°04'1719.9
2015-May-03 00:21N 35°12' E 019°23'2119.9
2015-May-02 23:19N 35°05' E 019°48'1519.9
2015-May-02 22:33N 35°00' E 020°05'2019.9
2015-May-02 21:33N 34°54' E 020°28'2019.9
2015-May-02 20:33N 34°48' E 020°51'2020.0
2015-May-02 19:33N 34°42' E 021°14'2019.8
2015-May-02 18:33N 34°37' E 021°38'8419.6
2015-May-02 14:18N 34°11' E 023°14'1819.6
2015-May-02 13:23N 34°05' E 023°34'2120.0
2015-May-02 12:20N 33°59' E 023°58'42019.3
2015-May-01 14:33N 31°33' E 031°46'  
2015-Apr-27 06:00N 14°12' E 042°18'   1009.210.8 29.024.830.0

Dump ship's entire track history